Location: Dana
(41.8364°N, 106.7042°W)
Time: 14:48:59
(UTC+00:00)

Vanguard 3 - Pass Details

Date: 10 May 2026
Orbit: 507 x 3204 km, 33.3° (Epoch: 8 June)

Event Time Altitude Azimuth Distance (km) Brightness Sun altitude
Rises 00:35:07 0° 260° (W) 7,112 13.3 16.8°
Reaches altitude 10° 00:40:13 10° 258° (WSW) 5,959 13.1 15.8°
Maximum altitude 00:57:26 60° 185° (S) 2,561 9.8 12.7°
Drops below altitude 10° 01:08:01 10° 108° (ESE) 3,831 10.0 10.8°
Sets 01:10:34 0° 105° (ESE) 4,519 10.3 10.3°
